VK3TI-1 Weather Reports


Display with metric or nautical units.
time (UTC)temp
F
wind
direction
speed
MPH
gust
MPH
rain 1hr
in
rain 24hr
in
rain mn
in
humidity
%
barometer
mb
20260504033100 63 346 8.0 22.0 0.00 0.04 0.00 54 1010.0
20260504031559 64 5 14.0 26.0 0.00 0.04 0.00 53 1010.0
20260504030056 63 342 6.0 25.0 0.00 0.04 0.00 56 1010.2
20260504024555 63 306 11.0 25.0 0.00 0.04 0.00 56 1010.4
20260504023052 63 18 9.0 29.0 0.00 0.04 0.00 56 1010.4
20260504021553 63 302 8.0 25.0 0.00 0.04 0.00 56 1010.7
20260504020056 62 325 5.0 22.0 0.00 0.04 0.00 60 1010.8
20260504014547 62 340 4.0 15.0 0.00 0.20 0.00 61 1011.0
20260504013101 62 5 5.0 20.0 0.00 0.20 0.00 61 1011.1
20260504011543 63 346 9.0 22.0 0.00 0.20 0.00 60 1011.2
20260504010042 62 319 8.0 23.0 0.00 0.20 0.00 62 1011.3
20260504004539 62 30 4.0 18.0 0.00 0.39 0.00 63 1011.4
20260504003036 61 355 8.0 23.0 0.00 0.39 0.00 63 1011.3
20260504001537 61 355 11.0 21.0 0.00 0.39 0.00 63 1011.3
20260504000030 61 355 5.0 20.0 0.00 0.39 0.00 65 1011.4
20260503234626 61 336 7.0 17.0 0.00 0.42 0.00 66 1011.5
20260503233021 60 314 10.0 18.0 0.00 0.42 0.00 66 1011.5
20260503231517 59 336 7.0 18.0 0.00 0.42 0.00 68 1011.5
20260503230033 59 24 9.0 19.0 0.00 0.42 0.00 69 1011.8
20260503224509 58 336 5.0 16.0 0.00 0.42 0.00 72 1011.8
20260503223004 57 345 4.0 10.0 0.00 0.42 0.00 75 1011.9
20260503221609 56 347 2.0 11.0 0.00 0.42 0.00 77 1012.0
20260503220055 55 355 5.0 11.0 0.00 0.42 0.00 78 1012.0
20260503214552 55 346 3.0 12.0 0.00 0.42 0.00 79 1011.9
20260503213050 55 338 5.0 13.0 0.00 0.42 0.00 79 1011.8
20260503211550 55 360 1.0 11.0 0.00 0.42 0.00 79 1011.8
20260503210046 55 69 3.0 8.0 0.00 0.42 0.00 80 1011.9
20260503204558 55 321 1.0 9.0 0.00 0.42 0.00 80 1011.8
20260503203045 55 355 0.0 13.0 0.00 0.42 0.00 80 1011.5
20260503201540 55 348 1.0 10.0 0.00 0.42 0.00 80 1011.3
20260503200038 55 355 2.0 11.0 0.00 0.42 0.00 80 1011.4
20260503194541 55 338 2.0 9.0 0.00 0.42 0.00 79 1011.4
20260503193044 55 329 0.0 9.0 0.00 0.42 0.00 79 1011.7
20260503191559 55 31 2.0 10.0 0.00 0.42 0.00 80 1011.8
20260503190033 55 349 0.0 11.0 0.00 0.42 0.00 79 1011.8
20260503184526 55 346 2.0 13.0 0.00 0.42 0.00 80 1011.8
20260503183024 55 15 2.0 12.0 0.00 0.42 0.00 80 1011.9
20260503181522 55 323 2.0 13.0 0.00 0.42 0.00 82 1012.0
20260503180025 55 338 2.0 9.0 0.00 0.42 0.00 83 1012.2
20260503174516 55 316 2.0 10.0 0.00 0.42 0.00 83 1012.2
20260503173015 55 28 2.0 9.0 0.00 0.42 0.00 83 1012.3
20260503171514 55 360 3.0 9.0 0.00 0.42 0.00 84 1012.4
20260503081532 58 351 0.0 1.0 0.00 0.42 0.42 77 1011.5
20260503071514 62 325 0.0 5.0 0.00 0.42 0.42 76 1011.2
20260503054510 61 5 2.0 10.0 0.03 0.42 0.42 86 1010.8
20260503053010 61 335 0.0 6.0 0.03 0.41 0.41 85 1011.0
20260503051507 61 346 0.0 6.0 0.03 0.41 0.41 85 1010.9
20260503050005 63 319 2.0 17.0 0.03 0.41 0.41 85 1010.8
20260503044506 65 310 1.0 6.0 0.01 0.39 0.39 83 1010.4
20260503043004 65 344 0.0 13.0 0.00 0.38 0.38 81 1010.2
20260503041506 65 327 2.0 17.0 0.00 0.38 0.38 81 1010.1
20260503040003 65 355 4.0 18.0 0.00 0.38 0.38 81 1010.2
20260503034502 65 38 2.0 15.0 0.00 0.38 0.38 81 1010.2